SCP
0 0 0 0 0 0 0 0 0 0 0 0 0 0 0 0 0 0 0 0 1 1 1 1 1 1 1 1 1 1 1 1 1 1 1 1 1 1 1 1 1 1 1
0 0 0 0 0 0 0 0 0 0 0 0 0 0 0 0 0 0 0 0 0 0 0 0 1 1 1 1 1 1 1 1 1 1 1 1 1 1 1 1 1 1 1
0 0 0 0 0 0 0 0 0 0 0 0 0 0 0 0 0 0 0 0 0 0 0 0 0 1 1 1 1 1 1 1 1 1 1 1 1 1 1 1 1 1 1
0 0 0 0 0 0 0 0 0 0 0 0 0 0 0 0 0 0 0 0 0 0 0 0 0 0 1 1 1 1 1 1 1 1 1 1 1 1 1 1 1 1 1
0 0 0 0 0 0 0 0 0 0 0 0 0 0 0 0 0 0 0 0 0 0 0 0 0 0 0 0 1 1 1 1 1 1 1 1 1 1 1 1 1 1 1
0 0 0 0 0 0 0 0 0 0 0 0 0 0 0 0 0 0 0 0 0 0 0 0 0 0 0 0 0 1 1 1 1 1 1 1 1 1 1 1 1 1 1
0 0 0 0 0 0 0 0 0 0 0 0 0 0 0 0 0 0 0 0 0 0 0 0 0 0 0 0 0 0 1 1 1 1 1 1 1 1 1 1 1 1 1
0 0 0 0 0 0 0 0 0 0 0 0 0 0 0 0 0 0 0 0 0 0 0 0 0 0 0 0 0 0 0 1 1 1 1 1 1 1 1 1 1 1 1
0 0 0 0 0 0 0 0 0 0 0 0 0 0 0 0 0 0 0 0 0 0 0 0 0 0 0 0 0 0 0 0 1 1 1 1 1 1 1 1 1 1 1
0 0 0 0 0 0 0 0 0 0 0 0 0 0 0 0 0 0 0 0 0 0 0 0 0 0 0 0 0 0 0 0 1 1 1 1 1 1 1 1 1 1 1
0 0 0 0 0 0 0 0 0 0 0 0 0 0 0 0 0 0 0 0 0 0 0 0 0 0 0 0 0 0 0 0 0 1 1 1 1 1 1 1 1 1 1
0 0 0 0 0 0 0 0 0 0 0 0 0 0 0 0 0 0 0 0 0 0 0 0 0 0 0 0 0 0 0 0 0 0 1 1 1 1 1 1 1 1 1
0 0 0 0 0 0 0 0 0 0 0 0 0 0 0 0 0 0 0 0 0 0 0 0 0 0 0 0 0 0 0 0 0 0 1 1 1 1 1 1 1 1 1
0 0 0 0 0 0 0 0 0 0 0 0 0 0 0 0 0 0 0 0 0 0 0 0 0 0 0 0 0 0 0 0 0 0 0 1 1 1 1 1 1 1 1
0 0 0 0 0 0 0 0 0 0 0 0 0 0 0 0 0 0 0 0 0 0 0 0 0 0 0 0 0 0 0 0 0 0 0 0 1 1 1 1 1 1 1
0 0 0 0 0 0 0 0 0 0 0 0 0 0 0 0 0 0 0 0 0 0 0 0 0 0 0 0 0 0 0 0 0 0 0 0 0 0 1 1 1 1 1
0 0 0 0 0 0 0 0 0 0 0 0 0 0 0 0 0 0 0 0 0 0 0 0 0 0 0 0 0 0 0 0 0 0 0 0 0 0 0 0 0 1 1
0 0 0 0 0 0 0 0 0 0 0 0 0 0 0 0 0 0 0 0 0 0 0 0 0 0 0 0 0 0 0 0 0 0 0 0 0 0 0 0 0 0 0
0 0 0 0 0 0 0 0 0 0 0 0 0 0 0 0 0 0 0 0 0 0 0 0 0 0 0 0 0 0 0 0 0 0 0 0 0 0 0 0 1 1 0
0 0 0 0 0 0 0 0 0 0 0 0 0 0 0 0 0 0 0 0 0 0 0 0 0 0 0 0 0 0 0 0 0 0 0 0 0 0 0 0 0 0 0
0 0 0 0 0 0 0 0 0 0 0 0 0 0 0 0 0 0 0 0 0 0 0 0 0 0 0 0 0 0 0 0 0 0 0 0 0 0 0 0 0 0 0
0 0 0 0 0 0 0 0 0 0 0 0 0 0 0 0 0 0 0 0 0 0 0 0 0 0 0 0 0 0 0 0 0 0 0 0 0 0 0 0 0 0 0
0 0 0 0 0 0 0 0 0 0 0 0 0 0 0 0 0 0 0 0 0 0 0 0 0 0 0 0 0 0 0 0 0 0 0 0 0 0 0 0 0 0 0
0 0 0 0 0 0 0 0 0 0 0 0 0 0 0 0 0 0 0 0 0 0 0 0 0 0 0 0 0 0 0 0 0 0 0 0 0 0 0 0 0 0 0
0 0 0 0 0 0 0 0 0 0 0 0 0 0 0 0 0 0 0 0 0 0 0 0 0 0 0 0 0 0 0 0 0 0 0 0 0 0 0 0 0 0 0
0 0 0 0 0 0 0 0 0 0 0 0 0 0 0 0 0 0 0 0 0 0 0 0 0 0 0 0 0 0 0 0 0 0 0 0 0 0 0 0 0 0 0
Wind_Speed
4 6 3 2 2 4 4 4 4 4 4 3 3 4 4 4 3 3 4 5 5 5 4 4 4 3 2 3 4 3 4 3 3 2 3 3 4 5 4 4 3 4 4
2 4 4 3 3 4 4 4 4 4 4 3 3 3 3 3 3 3 3 4 4 4 5 5 4 3 3 4 4 3 2 2 3 3 2 2 3 4 6 4 4 4 3
2 3 4 3 3 3 4 5 5 5 5 4 3 4 4 3 3 4 3 4 4 4 3 4 4 4 3 3 4 3 4 3 3 4 3 3 4 2 3 5 5 5 3
2 2 2 3 3 4 4 5 5 5 5 5 4 4 4 3 4 3 3 4 4 4 3 3 4 4 3 3 4 4 3 3 3 3 4 3 2 2 2 2 4 4 4
3 2 2 2 2 3 3 3 3 3 3 4 4 3 3 3 3 4 4 4 4 4 4 3 4 4 3 3 4 4 4 3 4 3 2 3 3 3 2 2 3 3 4
3 2 2 2 1 2 1 1 1 1 2 3 4 3 3 4 5 5 4 4 3 3 4 5 4 4 3 4 4 3 4 4 4 3 3 3 3 3 3 3 3 3 3
3 3 2 2 1 1 0 1 1 1 2 3 4 4 3 4 4 4 4 4 3 3 4 5 4 4 3 4 4 4 4 4 5 4 4 4 4 3 3 3 3 3 2
3 2 2 2 2 2 1 0 1 1 1 2 3 4 4 3 3 4 4 4 3 3 4 5 5 5 4 4 3 3 4 4 4 5 4 4 4 4 4 4 3 3 3
4 3 3 2 2 1 1 0 1 1 1 2 3 2 3 3 4 4 4 3 4 4 5 5 5 5 4 4 3 3 4 4 3 4 5 4 4 4 4 4 4 4 4
4 4 4 3 2 1 1 2 2 2 0 2 2 2 2 2 3 3 3 4 5 5 5 5 5 5 4 4 3 3 4 4 4 4 4 5 4 4 4 4 4 4 4
4 4 4 3 2 1 2 2 2 1 1 1 2 3 2 2 3 3 3 4 4 5 5 5 5 5 5 4 4 4 5 4 4 4 4 5 5 4 4 4 4 4 4
4 4 4 3 2 2 1 1 0 1 1 1 2 3 3 2 3 4 4 5 5 5 5 5 5 5 5 5 5 5 5 5 5 5 4 4 4 4 4 4 5 4 5
4 4 4 3 2 2 2 2 1 1 1 1 1 3 4 2 3 3 4 5 5 5 5 5 5 5 5 5 5 5 6 6 5 5 5 4 4 4 3 3 4 4 4
4 4 4 4 4 3 2 2 1 2 1 2 2 2 3 2 2 3 4 4 5 5 5 5 5 5 5 5 5 6 7 6 6 5 4 4 3 3 3 3 3 4 4
3 4 5 4 4 4 4 3 3 2 1 1 1 1 2 3 3 3 4 4 4 6 5 5 5 5 4 4 5 5 7 7 7 6 5 4 4 5 4 3 3 3 3
3 3 4 4 4 4 3 3 3 3 2 2 1 1 1 1 2 3 3 3 4 5 4 5 5 4 4 5 6 6 6 7 7 6 5 5 4 6 6 6 6 6 5
2 3 3 3 3 3 2 3 2 2 2 2 1 1 1 1 2 3 3 4 4 4 4 5 5 4 3 5 7 9 6 7 7 6 5 5 5 4 3 5 6 7 9
1 2 2 3 4 4 3 3 3 3 3 2 2 2 2 2 2 3 4 4 4 4 4 4 5 4 4 4 5 9 7 7 6 5 4 4 4 3 4 4 4 5 5
2 1 1 2 3 2 2 2 3 4 3 3 2 3 3 3 3 3 4 4 3 4 4 4 4 4 3 1 3 6 5 5 6 5 4 4 3 5 6 4 5 5 4
2 1 1 1 1 1 2 1 2 2 2 3 3 2 2 2 3 4 4 4 4 4 5 4 4 5 3 2 1 4 3 5 5 4 4 4 4 6 6 4 5 5 4
2 1 0 1 1 1 0 2 3 2 1 1 1 1 2 3 4 4 4 4 4 5 5 5 5 5 3 3 3 2 2 3 5 4 4 3 6 7 7 6 4 6 5
3 1 1 1 1 1 2 3 3 2 1 1 2 4 4 5 4 5 5 5 5 5 6 5 5 3 3 4 5 5 5 5 4 4 3 4 8 9 9 6 5 6 5
3 1 0 1 1 1 1 2 3 2 2 3 4 5 6 6 6 6 6 5 5 4 4 4 4 3 2 3 7 7 7 7 4 4 6 8 10 9 6 5 6 4 2
3 2 2 1 2 2 2 2 3 4 4 5 5 5 6 6 6 5 5 4 4 4 4 4 3 3 2 2 2 2 3 4 4 4 6 8 8 5 5 4 3 2 1
4 4 3 3 3 4 4 4 4 5 5 6 5 5 5 5 5 4 5 5 5 5 5 4 4 3 3 2 2 1 1 1 2 4 4 4 3 2 2 2 2 1 1
4 5 4 4 5 6 7 7 7 7 7 6 6 4 4 4 4 4 5 8 9 11 12 11 8 5 6 5 6 5 4 5 5 4 4 4 3 3 2 2 1 1 1
Wind_Direction
101 103 87 64 24 31 21 11 15 15 19 16 342 342 337 328 331 343 355 348 335 332 318 310 315 311 282 262 249 239 232 224 208 209 241 254 244 244 246 250 241 221 197
65 99 92 66 42 39 23 5 23 18 20 6 343 329 329 319 328 339 346 347 338 336 331 329 314 304 298 284 265 245 232 238 203 190 181 230 249 243 234 235 236 228 202
45 46 50 37 38 50 31 11 23 19 19 360 360 343 332 330 351 347 343 335 326 327 326 325 318 307 301 288 278 258 232 235 231 201 186 187 212 225 239 230 232 228 215
106 84 68 42 27 50 41 19 19 16 16 2 5 345 337 344 336 333 328 334 331 335 322 320 319 309 300 292 286 274 246 224 238 234 227 232 218 181 230 253 234 227 224
119 108 96 72 40 51 46 21 16 17 13 344 327 315 342 332 323 325 331 337 327 328 336 334 320 312 304 301 297 299 278 239 225 225 220 232 243 231 205 236 245 239 231
138 142 126 122 99 79 66 13 13 6 345 319 315 324 339 330 324 332 337 331 320 328 351 343 332 316 315 309 298 286 278 262 244 233 220 209 207 210 207 218 225 232 244
155 154 145 132 102 75 88 318 337 346 354 329 324 340 349 339 335 348 337 326 328 339 346 345 327 319 311 305 302 293 280 266 255 240 229 223 223 223 216 215 218 226 246
162 150 146 155 182 214 195 221 319 311 327 317 338 345 353 356 344 342 327 328 335 328 332 333 318 313 311 314 314 303 292 281 269 260 245 230 229 222 218 210 199 211 233
164 175 170 186 204 204 153 167 282 300 322 327 330 334 2 345 337 335 332 340 330 323 334 318 316 317 322 320 315 298 298 300 281 265 258 243 233 231 225 220 203 193 210
181 175 160 183 211 183 166 212 223 242 341 338 322 351 345 337 325 316 329 326 316 318 314 317 319 320 328 330 326 310 298 295 284 268 256 248 233 229 227 223 220 211 208
174 167 162 180 181 220 232 217 210 185 138 348 336 338 333 317 309 318 325 315 316 324 325 329 331 336 338 333 332 321 316 308 299 292 279 266 247 230 229 224 220 221 214
161 168 170 177 191 218 273 304 337 67 106 73 339 321 303 304 342 345 339 338 329 324 324 331 336 340 339 335 332 327 325 313 304 301 298 285 272 243 228 220 219 219 214
173 183 169 178 197 203 225 242 205 151 120 142 286 301 311 348 351 335 341 333 327 330 329 330 338 336 335 337 338 336 324 318 311 308 303 299 294 270 245 228 222 222 225
177 183 171 189 194 202 227 231 148 136 182 207 232 280 307 340 353 348 336 325 333 333 328 335 338 334 333 338 352 343 329 322 316 309 302 297 296 287 274 257 242 230 224
192 188 181 197 196 200 206 200 167 175 220 233 227 274 343 359 357 335 323 331 336 327 327 332 329 330 330 355 359 339 327 322 317 313 306 298 292 291 276 265 256 244 229
208 200 192 189 198 216 199 177 166 173 196 228 218 161 253 301 314 305 310 319 311 304 315 318 317 323 335 344 340 332 318 311 308 309 306 297 283 282 280 268 258 245 238
190 193 205 187 190 219 176 146 142 148 208 223 195 169 221 267 286 304 312 307 304 308 317 311 313 316 329 322 329 332 318 298 297 299 300 303 306 310 299 291 275 260 249
152 177 202 190 193 200 174 156 164 196 212 199 206 207 208 232 252 269 277 281 290 304 303 302 308 314 316 320 330 331 311 299 299 300 298 300 309 329 334 312 292 273 253
104 149 192 212 203 186 159 177 206 204 195 189 215 227 214 217 238 262 271 270 275 282 285 289 295 298 299 309 322 333 310 306 312 324 328 325 325 329 333 307 291 286 273
74 77 128 270 266 162 143 212 266 259 228 201 211 224 222 225 239 252 265 272 271 269 275 276 273 277 277 225 270 329 310 315 319 322 326 349 343 329 324 306 294 288 282
92 74 273 275 333 349 300 251 264 274 286 127 191 240 247 244 242 242 249 263 271 274 275 276 269 260 248 216 205 255 291 309 315 318 326 340 346 336 325 311 286 279 284
116 123 275 262 245 274 278 278 278 288 305 263 239 242 245 250 254 240 241 248 260 272 275 273 274 262 227 201 204 226 253 275 290 302 313 323 329 326 318 308 293 293 286
102 116 231 321 323 304 291 304 313 312 286 263 250 243 243 243 238 237 240 242 245 251 262 267 271 272 244 205 209 224 251 266 266 284 298 303 307 311 307 298 305 309 289
75 71 62 44 10 4 39 18 336 325 305 282 265 252 248 247 243 234 228 229 237 247 258 265 270 272 265 240 189 219 258 272 278 293 301 297 294 288 286 294 293 285 295
70 69 55 38 23 20 28 19 356 335 316 302 293 283 272 265 260 250 232 229 228 223 230 241 250 265 271 226 185 211 275 317 320 319 300 288 286 291 287 290 295 304 336
68 68 58 43 32 29 30 20 4 351 337 324 320 317 312 301 288 278 273 249 241 243 236 232 233 244 244 220 217 228 248 269 291 305 286 287 282 276 276 279 275 263 248